Погода в Курасовке

Россия / Белгородская область     51°03′58″N   36°13′01″E
темп.,
°C
ветер,
м/с
пор.,
м/с
влажн.,
%
обл.,
%
осадки,
мм/ч
давл.,
гПа
погр.,
м
17 октября, вс
вс1700:00+9зсз2359100 0.0 101986
03:00+6сз337261 0.0 101842
06:00+5ссз229167 0.0 101918
09:00+7с2279100 0.0 1019145
12:00+11сз2261100 0.0 1018635
15:00+13зсз34507 0.0 10171213
18:00+9сз33647 0.0 101742
21:00+6сз337463 0.0 101832
18 октября, пн
пн1800:00+5зсз34885 0.0 101852
03:00+4зсз229072 0.0 101824
06:00+4з3385100 0.0 101852
09:00+6з366954 0.0 1018231
12:00+10з5648100 0.0 10171001
15:00+10з5749100 0.0 10161163
18:00+8з4858100 0.0 1016347
21:00+7зюз3867100 0.0 1016340
19 октября, вт
вт1900:00+6з4676100 0.1 1016926
03:00+6зсз4682100 0.3 1015971
06:00+4с6892100 2.3 1016687
09:00+5сз478210 2.4 1017497
12:00+8сз67485 0.0 10181387
15:00+8сз784999 0.0 10181878
18:00+5ссз6964100 0.1 10201007
21:00+4сз586791 0.2 1022648
20 октября, ср
ср2000:00+3сз5107594 0.0 1023551
03:00+1сз498464 0.1 1024522
06:00−1ссз379558 0.0 1026186
09:00+2сз4679100 0.0 1027602
12:00+5зсз4557100 0.0 10271014
15:00+6з4548100 0.0 10261151
18:00+4зюз2254100 0.0 102620
21:00+2юз34628 0.0 102553
21 октября, чт
чт2100:00+2ююз3867100 0.0 1024148
03:00+3ююз5126697 0.0 1023299
06:00+4ююз61460100 0.0 1021367
09:00+5ююз71653100 0.0 1020482
12:00+9ююз8165563 0.0 1018721
15:00+13ююз91552100 0.0 10161001
18:00+11ююз81655100 0.0 1015794
21:00+11юз8166480 0.0 1014780